Overview Statistics Trail Chart Weather Telemetry Raw packets
 

This is the latest recevied weather packets stored in our database for station/object K8RRT. If no packets are shown the sender has not sent any weather packets the latest 10 day(s).

<< 100 101 102 103 104 105 106 >>
Time Temp. Humidity Pressure Rain* Wind** Luminosity Snow
1787860787 31.11° C 66% 1009.6 hPa 0 mm - 611 W/m² -
1787860483 31.11° C 66% 1009.6 hPa 0 mm - 664 W/m² -
1787860182 30° C 69% 1009.5 hPa 0 mm - 680 W/m² -
1787859878 30° C 68% 1009.5 hPa 0 mm - 203 W/m² -
1787859573 30° C 69% 1010 hPa 0 mm - 533 W/m² -
1787859267 30.56° C 67% 1010.1 hPa 0 mm - 662 W/m² -
1787858964 30.56° C 65% 1010 hPa 0 mm - 678 W/m² -
1787858659 30.56° C 65% 1010.1 hPa 0 mm - 701 W/m² -
1787858355 30° C 65% 1010.1 hPa 0 mm - 735 W/m² -
1787858050 30° C 68% 1010.1 hPa 0 mm - 214 W/m² -
1787857745 30.56° C 66% 1010.2 hPa 0 mm - 695 W/m² -
1787857441 30.56° C 67% 1010.1 hPa 0 mm - 687 W/m² -
1787857138 30.56° C 66% 1010.4 hPa 0 mm - 730 W/m² -
1787856834 30° C 70% 1010.2 hPa 0 mm - 732 W/m² -
1787856528 30° C 69% 1010.3 hPa 0 mm - 702 W/m² -
1787856224 29.44° C 70% 1010.4 hPa 0 mm - 746 W/m² -
1787855924 30° C 69% 1010.6 hPa 0 mm - 283 W/m² -
1787855618 30° C 69% 1010.4 hPa 0 mm - 396 W/m² -
1787855314 29.44° C 69% 1010.3 hPa 0 mm - 787 W/m² -
1787855009 28.89° C 70% 1010.5 hPa 0 mm - 782 W/m² -
1787854704 28.33° C 73% 1010.5 hPa 0 mm - 196 W/m² -
1787854404 28.89° C 71% 1010.5 hPa 0 mm - 193 W/m² -
1787854103 28.89° C 72% 1010.5 hPa 0 mm - 309 W/m² -
1787853799 28.89° C 71% 1010.7 hPa 0 mm - 244 W/m² -
1787853497 29.44° C 74% 1010.6 hPa 0 mm - 291 W/m² -

* Rain latest hour (hover to see other rain measurements)
** Current wind speed in m/s (hover to see current wind gust speed)